DECAYED

RESURS P1 DEB, 60222 (Decayed)

Orbit data source: Space-Track

RESURS P1 DEB, 60222 was space debris in LEO originally from a Commonwealth of Independent States-origin launch on Tue, 25 Jun 2013 UTC launched from the Tyuratam Missile And Space Complex (TTMTR). Debris objects in space refer to the collection of defunct objects orbiting the Earth. Examples of debris include non-operational satellites, rocket bodies, and fragments generated from explosions, collisions, or faulty payload assembly.

Not visible in the next 10 days
RESURS P1 DEB details
Identifier
60222, 2013-030L
Orbit
Decayed
Last TLE update5 months ago
Origin
Flag of CISTSSKBP? (CIS)
ManufacturerTSSKBP?
MissionDecayed spacecraft
Bus & MotorUnknown
MassUnknown
Launch date (UTC)
2013-06-25 (11 years ago)
Launch vehicleUnknown
Launch site
Tyuratam Missile And Space Complex (TTMTR)
Object type
Payload
Rocket body
Debris
Shape & HBRUnknown
Radar Cross SectionSmall (<0.1 m²)

Expand to show TLE details & history

TLE from 5 months ago
0 RESURS P1 DEB
1 60222U 13030L   24214.08451615  .04257955  22011-5  20902-2 0  9995
2 60222  96.9916 265.0887 0012533 257.3569 102.6320 16.20863985  5547
Epoch: 2024-08-01T02:01Z
Definitive object data (Epoch: 2024-08-01T02:01:42.195Z)
Latitude-0.00004°
Longitude-75.51593°
Altitude222.263 km
Speed7.772 km/s
True Right ascension17h 40m 21s
True Declination0° 00' 00"
Sunlit
Object was in full shadow at TLE epoch
Visualization observer readout
Observer readout values are unavailable because the object's trajectory could not be propagated. This is usually caused when the trajectory data is faulty or the object's orbit has decayed.
Visualization observer readout
Observer readout values are unavailable because the object's trajectory could not be propagated. This is usually caused when the trajectory data is faulty or the object's orbit has decayed.
Orbital elements
Apogee altitude222.284 km
Perigee altitude205.76 km
Semi-major axis6,592.159 km
Eccentricity0.0012533
Inclination96.9916°
RAAN265.0887°
Arg. of periapsis257.3569°
True anomaly102.77209°
Mean anomaly102.632°
Eccentric anomaly102.70205°
Mean motion4.0551 °/min
BSTAR0.0020902
Orbital period88.78 mins
Loading maneuver chart data...

RESURS P1 DEB Visibility forecast

Observer location: undefined°, undefined

This satellite is decayed
Span
Click to sort rows by Start time (UTC) header in descending order
Start Az.
Max El. time (UTC)
Max El. Az.
Max El.
End time (UTC)
End Az.
|